Flag for Germany Weather past 2 weeks in Celle, Lower Saxony, Germany

Now
57 °F

Light rain. Low clouds.


Feels Like: 57 °F
Forecast: 55 / 67 °F
Wind: 3 mph from North

Location: Celle Airport

Current Time: Aug 28, 2015 at 12:30:21 AM

Latest Report: Aug 27, 2015 at 11:20 PM


Visibility: 4 mi

Pressure: 29.86 "Hg

Humidity: 100%

Dew point: 57 °F

Location of CelleLocation

Historic Weather in Celle — Graph

°F

Celle temperature yesterday

Maximum temperature yesterday: 72 °F (at 12:20 PM)
Minimum temperature yesterday: 57 °F (at 11:20 PM)
Average temperature yesterday: 65 °F

Past Weeks' High & Low Weather Summary

 TemperatureHumidityPressure
High86 °F (Aug 14, 4:48 PM)100% (Aug 15, 12:20 AM)30.30 "Hg (Aug 15, 12:20 AM)
Low52 °F (Aug 22, 6:20 AM)32% (Aug 21, 4:20 PM)29.59 "Hg (Aug 24, 7:20 PM)
Average66 °F75%29.94 "Hg
* Reported Aug 12 11:20 PM — Aug 27 11:20 PM, Celle, Weather by CustomWeather, © 2015

Note: Actual official high and low records may vary slightly from our data, if they occured in-between our weather recording intervals... More about our weather records

Advertising

Celle weather history for previous 24 hours

 ConditionsComfort  
Time TempWeatherWind HumidityBarometerVisibility
11:20 PM
Thu, Aug 27
57 °FLight rain. Low clouds.3 mph100%29.86 "Hg4 mi
10:50 PM59 °FLight rain. Fog.2 mph94%29.86 "Hg3 mi
10:20 PM59 °FRain. Fog.2 mph94%29.86 "Hg2 mi
9:49 PM59 °FLight rain. Fog.2 mph94%29.86 "Hg2 mi
9:20 PM59 °FLight rain. Fog.1 mph94%29.86 "Hg2 mi
8:52 PM59 °FLight rain. Fog.2 mph94%29.86 "Hg2 mi
8:20 PM59 °FLight rain. Fog.2 mph94%29.86 "Hg2 mi
7:20 PM59 °FLight rain. Fog.5 mph94%29.83 "Hg2 mi
6:20 PM61 °FLight rain. Cloudy.5 mph94%29.83 "Hg4 mi
5:20 PM63 °FLight rain. Broken clouds.2 mph94%29.83 "Hg4 mi
4:20 PM64 °FLight rain. Mostly cloudy.5 mph88%29.86 "HgN/A
3:20 PM66 °FLight rain. Mostly cloudy.5 mph83%29.86 "HgN/A
2:20 PM68 °FLight rain. Mostly cloudy.6 mph69%29.86 "HgN/A
1:20 PM70 °FMore clouds than sun.10 mph60%29.86 "HgN/A
12:20 PM72 °FOvercast.13 mph61%29.83 "HgN/A
11:20 AM70 °FLight rain. Overcast.8 mph69%29.83 "HgN/A
10:20 AM70 °FPartly sunny.6 mph69%29.83 "HgN/A
9:20 AM68 °FOvercast.3 mph73%29.80 "HgN/A
8:20 AM66 °FLight rain. Partly sunny.3 mph78%29.80 "HgN/A
7:20 AM66 °FPartly cloudy.5 mph73%29.77 "HgN/A
6:20 AM66 °FPartly cloudy.5 mph68%29.77 "HgN/A
5:20 AM68 °FPartly cloudy.3 mph60%29.77 "HgN/A
4:20 AM66 °FPassing clouds.3 mph64%29.77 "HgN/A
3:20 AM66 °FPartly cloudy.6 mph64%29.77 "HgN/A
2:20 AM66 °FPartly cloudy.8 mph68%29.77 "HgN/A
1:20 AM68 °FPassing clouds.5 mph60%29.80 "HgN/A
12:20 AM70 °FPassing clouds.3 mph60%29.83 "HgN/A
Weather by CustomWeather, © 2015

See weather overviewHow to use our weather pages